| time (UTC) | temp F | wind direction | speed knots | gust knots | rain 1hr in | rain 24hr in | rain mn in | humidity % | barometer mb |
| 20260906191554 | 106 | 320 | 2.6 | 7.0 | 0.00 | 0.00 | 0.00 | 34 | 1010.7 |
| 20260906190048 | 106 | 262 | 1.7 | 7.0 | 0.00 | 0.00 | 0.00 | 35 | 1010.9 |
| 20260906184555 | 104 | 350 | 2.6 | 6.1 | 0.00 | 0.00 | 0.00 | 37 | 1011.0 |
| 20260906183056 | 103 | 5 | 1.7 | 7.0 | 0.00 | 0.00 | 0.00 | 37 | 1011.2 |
| 20260906181545 | 104 | 155 | 2.6 | 8.7 | 0.00 | 0.00 | 0.00 | 37 | 1011.7 |
| 20260906180044 | 103 | 80 | 1.7 | 4.3 | 0.00 | 0.00 | 0.00 | 38 | 1012.1 |
| 20260906174541 | 102 | 350 | 2.6 | 7.0 | 0.00 | 0.00 | 0.00 | 39 | 1012.4 |
| 20260906173036 | 101 | 175 | 0.9 | 3.5 | 0.00 | 0.00 | 0.00 | 42 | 1012.5 |
| 20260906171537 | 101 | 40 | 1.7 | 4.3 | 0.00 | 0.00 | 0.00 | 41 | 1012.7 |
| 20260906170035 | 101 | 200 | 1.7 | 5.2 | 0.00 | 0.00 | 0.00 | 44 | 1013.0 |
| 20260906164539 | 99 | 19 | 1.7 | 4.3 | 0.00 | 0.00 | 0.00 | 46 | 1013.1 |
| 20260906163034 | 97 | 5 | 0.9 | 5.2 | 0.00 | 0.00 | 0.00 | 47 | 1013.2 |
| 20260906161522 | 97 | 31 | 2.6 | 5.2 | 0.00 | 0.00 | 0.00 | 47 | 1013.2 |
| 20260906160019 | 97 | 17 | 1.7 | 4.3 | 0.00 | 0.00 | 0.00 | 48 | 1013.3 |
| 20260906154519 | 95 | 225 | 1.7 | 4.3 | 0.00 | 0.00 | 0.00 | 51 | 1013.3 |
| 20260906153014 | 93 | 10 | 1.7 | 3.5 | 0.00 | 0.00 | 0.00 | 53 | 1013.2 |
| 20260906151513 | 93 | 13 | 0.9 | 4.3 | 0.00 | 0.00 | 0.00 | 56 | 1013.2 |
| 20260906150014 | 91 | 294 | 0.9 | 5.2 | 0.00 | 0.00 | 0.00 | 57 | 1013.1 |
| 20260906144620 | 90 | 5 | 0.9 | 2.6 | 0.00 | 0.00 | 0.00 | 60 | 1013.1 |
| 20260906143102 | 88 | 304 | 0.9 | 2.6 | 0.00 | 0.00 | 0.00 | 61 | 1013.2 |
| 20260906141604 | 87 | 258 | 0.9 | 2.6 | 0.00 | 0.00 | 0.00 | 63 | 1013.1 |
| 20260906140052 | 85 | 162 | 0.9 | 2.6 | 0.00 | 0.00 | 0.00 | 66 | 1013.0 |
| 20260906134545 | 83 | 205 | 0.0 | 2.6 | 0.00 | 0.00 | 0.00 | 70 | 1012.9 |
| 20260906133044 | 81 | 219 | 0.9 | 2.6 | 0.00 | 0.00 | 0.00 | 74 | 1012.8 |
| 20260906131542 | 79 | 160 | 0.9 | 2.6 | 0.00 | 0.00 | 0.00 | 77 | 1012.8 |
| 20260906130047 | 78 | 172 | 0.0 | 1.7 | 0.00 | 0.00 | 0.00 | 79 | 1012.8 |
| 20260906124540 | 77 | 149 | 0.0 | 1.7 | 0.00 | 0.00 | 0.00 | 80 | 1012.7 |
| 20260906123038 | 77 | 174 | 0.9 | 2.6 | 0.00 | 0.00 | 0.00 | 81 | 1012.3 |
| 20260906121538 | 76 | 163 | 0.0 | 0.9 | 0.00 | 0.00 | 0.00 | 81 | 1012.3 |
| 20260906120046 | 76 | 163 | 0.0 | 0.9 | 0.00 | 0.00 | 0.00 | 81 | 1012.3 |
| 20260906114539 | 76 | 158 | 0.9 | 2.6 | 0.00 | 0.00 | 0.00 | 82 | 1012.1 |
| 20260906113034 | 77 | 70 | 0.0 | 1.7 | 0.00 | 0.00 | 0.00 | 82 | 1012.0 |
| 20260906111533 | 77 | 17 | 0.0 | 0.0 | 0.00 | 0.00 | 0.00 | 81 | 1011.8 |
| 20260906110040 | 77 | 17 | 0.0 | 0.0 | 0.00 | 0.00 | 0.00 | 80 | 1011.6 |
| 20260906104529 | 77 | 17 | 0.0 | 1.7 | 0.00 | 0.00 | 0.00 | 80 | 1011.5 |
| 20260906103029 | 78 | 17 | 0.0 | 0.9 | 0.00 | 0.00 | 0.00 | 79 | 1011.7 |
| 20260906101529 | 78 | 17 | 0.0 | 1.7 | 0.00 | 0.00 | 0.00 | 79 | 1011.7 |
| 20260906100026 | 77 | 159 | 0.0 | 0.0 | 0.00 | 0.00 | 0.00 | 80 | 1011.7 |
| 20260906094549 | 78 | 159 | 0.0 | 0.9 | 0.00 | 0.00 | 0.00 | 80 | 1011.7 |
| 20260906093024 | 78 | 159 | 0.0 | 0.0 | 0.00 | 0.00 | 0.00 | 78 | 1011.5 |
| 20260906091524 | 77 | 159 | 0.0 | 0.9 | 0.00 | 0.00 | 0.00 | 77 | 1011.4 |
| 20260906090022 | 78 | 159 | 0.0 | 1.7 | 0.00 | 0.00 | 0.00 | 77 | 1011.3 |
| 20260906084520 | 78 | 159 | 0.0 | 0.0 | 0.00 | 0.00 | 0.00 | 77 | 1011.1 |
| 20260906083021 | 78 | 159 | 0.0 | 0.9 | 0.00 | 0.00 | 0.00 | 78 | 1011.2 |
| 20260906081536 | 79 | 159 | 0.0 | 0.0 | 0.00 | 0.00 | 0.00 | 76 | 1011.0 |
| 20260906080017 | 79 | 159 | 0.0 | 0.0 | 0.00 | 0.00 | 0.00 | 75 | 1010.8 |
| 20260906074515 | 79 | 159 | 0.0 | 0.0 | 0.00 | 0.00 | 0.00 | 75 | 1010.9 |
| 20260906073013 | 80 | 159 | 0.0 | 0.0 | 0.00 | 0.00 | 0.00 | 74 | 1010.8 |
| 20260906071511 | 80 | 159 | 0.0 | 0.0 | 0.00 | 0.00 | 0.00 | 71 | 1010.8 |
| 20260906070011 | 81 | 159 | 0.0 | 0.9 | 0.00 | 0.00 | 0.00 | 71 | 1010.9 |
| 20260906064506 | 82 | 159 | 0.0 | 0.0 | 0.00 | 0.00 | 0.00 | 70 | 1011.1 |
| 20260906063007 | 82 | 159 | 0.0 | 1.7 | 0.00 | 0.00 | 0.00 | 70 | 1011.1 |
| 20260906061507 | 82 | 159 | 0.0 | 2.6 | 0.00 | 0.00 | 0.00 | 70 | 1011.0 |
| 20260906060004 | 82 | 189 | 0.9 | 2.6 | 0.00 | 0.00 | 0.00 | 69 | 1011.2 |
| 20260906054502 | 82 | 315 | 0.0 | 0.9 | 0.00 | 0.00 | 0.00 | 70 | 1011.1 |
| 20260906053109 | 82 | 225 | 0.0 | 0.0 | 0.00 | 0.00 | 0.00 | 70 | 1011.0 |
| 20260906051557 | 82 | 225 | 0.0 | 0.9 | 0.00 | 0.00 | 0.00 | 68 | 1010.9 |
| 20260906050112 | 83 | 225 | 0.0 | 0.0 | 0.00 | 0.00 | 0.00 | 66 | 1010.8 |
| 20260906044555 | 83 | 225 | 0.0 | 0.0 | 0.00 | 0.00 | 0.00 | 65 | 1010.8 |
| 20260906043053 | 84 | 225 | 0.0 | 1.7 | 0.00 | 0.00 | 0.00 | 65 | 1010.9 |
| 20260906041552 | 84 | 225 | 0.0 | 2.6 | 0.00 | 0.00 | 0.00 | 65 | 1011.0 |
| 20260906040110 | 85 | 140 | 0.0 | 0.0 | 0.00 | 0.00 | 0.00 | 62 | 1010.9 |
| 20260906034602 | 85 | 140 | 0.0 | 0.0 | 0.00 | 0.00 | 0.00 | 61 | 1011.0 |
| 20260906033051 | 86 | 139 | 0.0 | 0.9 | 0.00 | 0.00 | 0.00 | 60 | 1010.8 |
| 20260906031600 | 86 | 140 | 0.0 | 0.0 | 0.00 | 0.00 | 0.00 | 57 | 1010.6 |
| 20260906030055 | 87 | 139 | 0.0 | 0.0 | 0.00 | 0.00 | 0.00 | 57 | 1010.5 |
| 20260906024549 | 88 | 139 | 0.0 | 0.0 | 0.00 | 0.00 | 0.00 | 56 | 1010.7 |
| 20260906023052 | 89 | 140 | 0.0 | 0.9 | 0.00 | 0.00 | 0.00 | 56 | 1010.4 |
| 20260906021600 | 89 | 140 | 0.0 | 0.9 | 0.00 | 0.00 | 0.00 | 53 | 1010.2 |
| 20260906020055 | 90 | 139 | 0.0 | 0.9 | 0.00 | 0.00 | 0.00 | 53 | 1010.1 |
| 20260906014556 | 91 | 139 | 0.0 | 0.0 | 0.00 | 0.00 | 0.00 | 50 | 1010.0 |
| 20260906013049 | 92 | 140 | 0.0 | 1.7 | 0.00 | 0.00 | 0.00 | 48 | 1009.9 |
| 20260906011548 | 94 | 140 | 0.0 | 0.0 | 0.00 | 0.00 | 0.00 | 46 | 1009.8 |
| 20260906010046 | 96 | 140 | 0.0 | 0.0 | 0.00 | 0.00 | 0.00 | 44 | 1009.7 |
| 20260906004547 | 97 | 140 | 0.0 | 0.9 | 0.00 | 0.00 | 0.00 | 42 | 1009.7 |
| 20260906003047 | 99 | 140 | 0.0 | 1.7 | 0.00 | 0.00 | 0.00 | 39 | 1009.7 |
| 20260906001547 | 100 | 157 | 0.0 | 2.6 | 0.00 | 0.00 | 0.00 | 37 | 1009.6 |
| 20260906000044 | 101 | 146 | 0.0 | 3.5 | 0.00 | 0.00 | 0.00 | 37 | 1009.5 |
| 20260905234544 | 102 | 98 | 1.7 | 3.5 | 0.00 | 0.00 | 0.00 | 35 | 1009.5 |
| 20260905233044 | 103 | 157 | 1.7 | 4.3 | 0.00 | 0.00 | 0.00 | 35 | 1009.3 |
| 20260905231543 | 103 | 102 | 1.7 | 6.1 | 0.00 | 0.00 | 0.00 | 36 | 1009.3 |
| 20260905230046 | 103 | 155 | 3.5 | 7.0 | 0.00 | 0.00 | 0.00 | 36 | 1009.1 |
| 20260905224551 | 103 | 234 | 0.9 | 6.1 | 0.00 | 0.00 | 0.00 | 36 | 1009.2 |
| 20260905223044 | 103 | 81 | 1.7 | 6.1 | 0.00 | 0.00 | 0.00 | 36 | 1009.2 |
| 20260905221546 | 103 | 93 | 2.6 | 6.1 | 0.00 | 0.00 | 0.00 | 37 | 1009.4 |
| 20260905220037 | 103 | 74 | 1.7 | 6.1 | 0.00 | 0.00 | 0.00 | 38 | 1009.5 |
| 20260905214536 | 103 | 128 | 1.7 | 5.2 | 0.00 | 0.00 | 0.00 | 37 | 1009.8 |
| 20260905213036 | 104 | 163 | 2.6 | 6.1 | 0.00 | 0.00 | 0.00 | 36 | 1009.9 |
| 20260905211542 | 103 | 85 | 1.7 | 7.8 | 0.00 | 0.00 | 0.00 | 38 | 1010.2 |
| 20260905210033 | 102 | 67 | 1.7 | 6.1 | 0.00 | 0.00 | 0.00 | 39 | 1010.3 |
| 20260905204529 | 103 | 24 | 3.5 | 7.0 | 0.00 | 0.00 | 0.00 | 39 | 1010.5 |
| 20260905203031 | 103 | 157 | 2.6 | 7.0 | 0.00 | 0.00 | 0.00 | 38 | 1010.8 |
| 20260905201524 | 103 | 176 | 2.6 | 6.1 | 0.00 | 0.00 | 0.00 | 39 | 1010.9 |
| 20260905200025 | 103 | 173 | 0.9 | 4.3 | 0.00 | 0.00 | 0.00 | 39 | 1011.2 |
| 20260905194519 | 102 | 188 | 1.7 | 7.0 | 0.00 | 0.00 | 0.00 | 39 | 1011.4 |
| 20260905193018 | 102 | 12 | 1.7 | 5.2 | 0.00 | 0.00 | 0.00 | 39 | 1011.6 |